TimeAKDT,TemperatureF,Dew PointF,Humidity,Sea Level PressureIn,VisibilityMPH,Wind Direction,Wind SpeedMPH,Gust SpeedMPH,PrecipitationIn,Events,Conditions,WindDirDegrees,DateUTC
12:50 PM,37.4,35.6,93,29.66,10.0,ENE,8.1,-,0.00,Rain,Light Rain,70,2013-10-12 20:50:00
1:01 PM,37.0,36.0,96,29.65,10.0,ENE,6.9,-,0.00,Rain,Light Rain,60,2013-10-12 21:01:00
1:33 PM,37.4,35.6,93,29.65,10.0,ENE,8.1,-,0.00,Rain,Light Rain,60,2013-10-12 21:33:00
1:45 PM,37.4,35.6,93,29.65,10.0,ENE,10.4,-,0.00,Rain,Light Rain,60,2013-10-12 21:45:00
2:01 PM,37.9,35.1,89,29.64,10.0,ENE,11.5,-,0.00,Rain,Light Rain,70,2013-10-12 22:01:00
2:23 PM,37.4,35.6,93,29.64,10.0,ENE,6.9,-,0.00,,Overcast,60,2013-10-12 22:23:00
3:01 PM,37.9,36.0,93,29.64,10.0,East,11.5,-,0.00,Rain,Light Rain,80,2013-10-12 23:01:00
3:30 PM,37.4,35.6,93,29.63,10.0,East,10.4,17.3,0.00,Rain,Light Rain,80,2013-10-12 23:30:00
3:45 PM,37.4,35.6,93,29.62,10.0,East,16.1,24.2,0.00,,Overcast,80,2013-10-12 23:45:00
4:01 PM,37.9,36.0,93,29.62,10.0,East,15.0,23.0,0.00,,Overcast,80,2013-10-13 00:01:00
4:42 PM,39.2,37.4,93,29.62,10.0,ENE,15.0,19.6,N/A,,Overcast,70,2013-10-13 00:42:00
5:01 PM,39.0,37.0,93,29.62,10.0,ENE,10.4,-,N/A,,Overcast,70,2013-10-13 01:01:00
6:01 PM,39.0,37.0,93,29.62,10.0,ENE,12.7,18.4,N/A,,Overcast,70,2013-10-13 02:01:00
6:10 PM,39.2,37.4,93,29.62,10.0,ENE,10.4,-,N/A,,Overcast,70,2013-10-13 02:10:00
6:45 PM,39.2,37.4,93,29.62,10.0,ENE,5.8,-,N/A,,Overcast,60,2013-10-13 02:45:00
7:01 PM,39.0,37.0,93,29.62,10.0,ENE,6.9,-,N/A,,Overcast,70,2013-10-13 03:01:00
8:01 PM,39.0,37.0,93,29.61,10.0,East,12.7,21.9,N/A,,Overcast,90,2013-10-13 04:01:00
8:25 PM,39.2,37.4,93,29.62,10.0,East,11.5,21.9,0.00,Rain,Light Rain,90,2013-10-13 04:25:00
8:34 PM,39.2,37.4,93,29.62,10.0,East,12.7,19.6,0.00,Rain,Light Rain,90,2013-10-13 04:34:00
9:01 PM,39.2,37.4,93,29.62,10.0,East,10.4,-,0.00,Rain,Light Rain,90,2013-10-13 05:01:00
9:30 PM,39.2,37.4,93,29.62,10.0,East,6.9,17.3,0.00,Rain,Light Rain,90,2013-10-13 05:30:00
10:01 PM,39.0,37.0,93,29.62,10.0,East,8.1,-,0.00,Rain,Light Rain,90,2013-10-13 06:01:00
10:25 PM,39.2,37.4,93,29.62,10.0,East,9.2,-,0.00,Rain,Light Rain,90,2013-10-13 06:25:00
10:44 PM,39.2,37.4,93,29.62,10.0,East,10.4,-,0.00,Rain,Light Rain,80,2013-10-13 06:44:00
11:01 PM,39.0,37.0,93,29.75,10.0,East,10.4,16.1,0.00,Rain,Light Rain,90,2013-10-13 07:01:00